Location: Buckhorn Peak
(37.6641°N, 120.1241°W)
Time: 19:56:04
(UTC+00:00)

Hubble Space Telescope - Pass Details

Date: 16 December 2025
Orbit: 479 x 481 km, 28.5° (Epoch: 22 January)

Event Time Altitude Azimuth Distance (km) Brightness Sun altitude
Rises 01:41:30 0° 250° (WSW) 2,532 6.5 -11.3°
Reaches altitude 10° 01:44:10 10° 232° (SW) 1,652 4.6 -11.8°
Maximum altitude 01:46:54 19° 186° (S) 1,198 2.9 -12.3°
Drops below altitude 10° 01:49:39 10° 140° (SE) 1,650 3.0 -12.8°
Enters shadow 01:50:57 - 129° (SE) 2,058 3.4 -13.0°
